Location: Gwatt
(46.7204°N, 7.6223°E)
Time: 06:22:52
(UTC+00:00)

Cosmos 1975 - Pass Details

Date: 18 September 2020
Orbit: 540 x 562 km, 82.5° (Epoch: 23 October)

Event Time Altitude Azimuth Distance (km) Brightness Sun altitude
Rises 18:43:57 0° 202° (SSW) 2,743 6.5 -12.6°
Reaches altitude 10° 18:46:11 10° 209° (SSW) 1,851 5.7 -12.9°
Maximum altitude 18:50:07 46° 283° (WNW) 765 4.1 -13.6°
Drops below altitude 10° 18:54:05 10° 358° (N) 1,861 5.8 -14.2°
Sets 18:56:20 0° 4° (N) 2,760 6.6 -14.6°
